User: anonymous   Login
Location: Turtle Rock Observatory
(36.6913°N, 81.9708°W)
Time: 04:13:59
(UTC-04:00)
Language:

Cosmos 1125 Rocket - Orbit

View from above orbital plane
View from above orbital plane
View from above satellite
View from above satellite

Ground track
Ground track

The orbit data is extracted from the following two-line orbital elements,

1 11511U 79078B   15210.85870162  .00000031  00000-0  19402-4 0  9990
2 11511 074.0374 140.3328 0016074 196.5133 163.5498 14.36641113879766
Epoch (UTC): 29 July 2015 20:36:31
Eccentricity: 0.0016074
inclination: 74.0374°
perigee height: 758 km
apogee height: 781 km
right ascension of ascending node: 140.3328°
argument of perigee: 196.5133°
revolutions per day: 14.36641113
mean anomaly at epoch: 163.5498°
orbit number at epoch: 87976

The dashed part of the orbit path shows where the satellite is in the earth's shadow,  

DLR